This is the latest recevied weather packets stored in our database for station/object KB3AWQ. If no packets are shown the sender has not sent any weather packets the latest 10 day(s).
| Time | Temp. | Humidity | Pressure | Rain* | Wind** | Luminosity | Snow |
|---|---|---|---|---|---|---|---|
| 1777568667 | 14.44° C | 64% | 1009.4 hPa | 0 mm | - | 213 W/m² | - |
| 1777568366 | 14.44° C | 64% | 1009.5 hPa | 0 mm | - | 234 W/m² | - |
| 1777568066 | 14.44° C | 64% | 1009.5 hPa | 0 mm | - | 206 W/m² | - |
| 1777567767 | 14.44° C | 62% | 1009.5 hPa | 0 mm | - | 213 W/m² | - |
| 1777567467 | 14.44° C | 64% | 1009.5 hPa | 0 mm | - | 210 W/m² | - |
| 1777567167 | 14.44° C | 64% | 1009.6 hPa | 0 mm | - | 189 W/m² | - |
| 1777566867 | 14.44° C | 63% | 1009.6 hPa | 0 mm | - | 156 W/m² | - |
| 1777566567 | 14.44° C | 61% | 1009.5 hPa | 0 mm | - | 160 W/m² | - |
| 1777566267 | 14.44° C | 63% | 1009.5 hPa | 0 mm | - | 178 W/m² | - |
| 1777565967 | 15° C | 64% | 1009.5 hPa | 0 mm | - | 213 W/m² | - |
| 1777565666 | 15° C | 63% | 1009.6 hPa | 0 mm | - | 257 W/m² | - |
| 1777565368 | 14.44° C | 65% | 1009.5 hPa | 0 mm | - | 413 W/m² | - |
| 1777565070 | 14.44° C | 64% | 1009.5 hPa | 0 mm | - | 894 W/m² | - |
| 1777564767 | 14.44° C | 66% | 1009.5 hPa | 0 mm | - | 299 W/m² | - |
| 1777564467 | 14.44° C | 64% | 1009.6 hPa | 0 mm | - | 290 W/m² | - |
| 1777564167 | 15° C | 66% | 1009.7 hPa | 0 mm | - | 385 W/m² | - |
| 1777563868 | 15° C | 63% | 1009.7 hPa | 0 mm | - | 279 W/m² | - |
| 1777563567 | 15° C | 65% | 1009.7 hPa | 0 mm | - | 333 W/m² | - |
| 1777563267 | 14.44° C | 70% | 1009.7 hPa | 0 mm | - | 1013 W/m² | - |
| 1777562966 | 13.89° C | 68% | 1009.8 hPa | 0 mm | - | 983 W/m² | - |
| 1777562669 | 14.44° C | 69% | 1009.7 hPa | 0 mm | - | 359 W/m² | - |
| 1777562369 | 14.44° C | 66% | 1009.7 hPa | 0 mm | - | 283 W/m² | - |
| 1777562067 | 14.44° C | 67% | 1009.7 hPa | 0 mm | - | 433 W/m² | - |
| 1777561767 | 14.44° C | 67% | 1009.8 hPa | 0 mm | - | 1064 W/m² | - |
| 1777561466 | 14.44° C | 66% | 1009.8 hPa | 0 mm | - | 291 W/m² | - |
* Rain latest hour (hover to see other rain measurements)
** Current wind speed in m/s (hover to see current wind gust speed)